Back to catalog

STARLINK-37293

AliveCommunicationsVLEO
NORAD 68978·PAYLOAD·🇺🇸 United States

Launched May 1, 2026 from Cape Canaveral Space Force Station

Loading…

Next Passes (next 24 hours)

TLE

FreshSource: CelesTrak SupGP

Epoch: Sep 14, 2026, 14:52 UTC

1 68978C 26099AD  26257.61993056  .00005827  00000+0  17192-3 0  2576
2 68978  53.1568 102.9340 0001094  90.5605   6.3924 15.34432884    13

Track STARLINK-37293 in real time with AllMySat

Download on the App Store